When you browse on this site, cookies collect data to enhance your experience and personalize the content and advertising you see.
Visit our Privacy Policy to learn more. By continuing to use the site, you agree to this use of cookies and data.

Stündliche Wetter Bolshie Klyuchi

Heute, 23 September, Mittwoch

Zeit Temperatur Niederschläge Wind Luftdruck Luftfeuchtigkeit
00:00 +10°C° 0 mm 7 m/S 738 mmHg 86%
01:00 +10°C° 0 mm 7 m/S 739 mmHg 88%
02:00 +10°C° 0 mm 6 m/S 740 mmHg 90%
03:00 +9°C° 0 mm 6 m/S 740 mmHg 91%
04:00 +9°C° 0 mm 6 m/S 740 mmHg 91%
05:00 +9°C° 0 mm 6 m/S 741 mmHg 92%
06:00 +9°C° 0 mm 6 m/S 741 mmHg 93%
07:00 +9°C° 0 mm 7 m/S 742 mmHg 84%
08:00 +10°C° 0 mm 7 m/S 743 mmHg 75%
09:00 +11°C° 0 mm 8 m/S 744 mmHg 67%
10:00 +11°C° 0 mm 7 m/S 744 mmHg 63%
11:00 +11°C° 0 mm 7 m/S 745 mmHg 59%
12:00 +11°C° 0 mm 7 m/S 745 mmHg 55%
13:00 +11°C° 0 mm 7 m/S 746 mmHg 55%
14:00 +11°C° 0 mm 6 m/S 747 mmHg 55%
15:00 +13°C° 0 mm 6 m/S 747 mmHg 56%
16:00 +10°C° 0 mm 5 m/S 748 mmHg 61%
17:00 +10°C° 0 mm 4 m/S 748 mmHg 67%
18:00 +9°C° 0 mm 3 m/S 749 mmHg 72%
19:00 +8°C° 0 mm 3 m/S 749 mmHg 73%
20:00 +8°C° 0 mm 2 m/S 750 mmHg 74%
21:00 +7°C° 0 mm 2 m/S 750 mmHg 75%
22:00 +7°C° 0 mm 2 m/S 750 mmHg 77%
23:00 +7°C° 0 mm 1 m/S 751 mmHg 79%

Morgen, 24 September, Donnerstag

Zeit Temperatur Niederschläge Wind Luftdruck Luftfeuchtigkeit
00:00 +7°C° 0 mm 1 m/S 751 mmHg 81%
01:00 +6°C° 0 mm 1 m/S 751 mmHg 82%
02:00 +6°C° 0 mm 1 m/S 752 mmHg 83%
03:00 +5°C° 0 mm 0 m/S 753 mmHg 83%
04:00 +6°C° 0 mm 1 m/S 753 mmHg 83%
05:00 +6°C° 0 mm 1 m/S 753 mmHg 83%
06:00 +6°C° 0 mm 1 m/S 753 mmHg 83%
07:00 +8°C° 0 mm 1 m/S 754 mmHg 77%
08:00 +9°C° 0 mm 2 m/S 754 mmHg 70%
09:00 +12°C° 0 mm 2 m/S 754 mmHg 64%
10:00 +13°C° 0 mm 2 m/S 754 mmHg 59%
11:00 +14°C° 0 mm 2 m/S 754 mmHg 54%
12:00 +16°C° 0 mm 3 m/S 754 mmHg 49%
13:00 +16°C° 0 mm 3 m/S 754 mmHg 51%
14:00 +16°C° 0 mm 3 m/S 754 mmHg 52%
15:00 +16°C° 0 mm 3 m/S 755 mmHg 54%
16:00 +14°C° 0 mm 3 m/S 755 mmHg 60%
17:00 +12°C° 0 mm 3 m/S 755 mmHg 67%
18:00 +10°C° 0 mm 3 m/S 755 mmHg 73%
19:00 +10°C° 0 mm 3 m/S 755 mmHg 76%
20:00 +9°C° 0 mm 3 m/S 755 mmHg 78%
21:00 +9°C° 0 mm 3 m/S 755 mmHg 81%
22:00 +9°C° 0 mm 3 m/S 755 mmHg 80%
23:00 +8°C° 0 mm 3 m/S 755 mmHg 80%

übermorgen, 25 September, Freitag

Zeit Temperatur Niederschläge Wind Luftdruck Luftfeuchtigkeit
00:00 +8°C° 0 mm 3 m/S 755 mmHg 80%
01:00 +8°C° 0 mm 3 m/S 756 mmHg 80%
02:00 +8°C° 0 mm 3 m/S 756 mmHg 81%
03:00 +8°C° 0 mm 3 m/S 756 mmHg 82%
04:00 +8°C° 0 mm 3 m/S 756 mmHg 84%
05:00 +7°C° 0 mm 3 m/S 756 mmHg 87%
06:00 +7°C° 0 mm 3 m/S 756 mmHg 89%
07:00 +9°C° 0 mm 3 m/S 756 mmHg 84%
08:00 +11°C° 0 mm 3 m/S 756 mmHg 79%
09:00 +12°C° 0 mm 3 m/S 757 mmHg 74%
10:00 +14°C° 0 mm 4 m/S 757 mmHg 70%
11:00 +15°C° 0 mm 4 m/S 756 mmHg 66%
12:00 +17°C° 0 mm 4 m/S 756 mmHg 62%
13:00 +17°C° 0 mm 4 m/S 756 mmHg 61%
14:00 +17°C° 0 mm 4 m/S 757 mmHg 60%
15:00 +17°C° 0 mm 4 m/S 757 mmHg 59%
16:00 +16°C° 0 mm 3 m/S 757 mmHg 65%
17:00 +13°C° 0 mm 3 m/S 757 mmHg 71%
18:00 +11°C° 0 mm 3 m/S 757 mmHg 76%
19:00 +11°C° 0 mm 3 m/S 757 mmHg 77%
20:00 +10°C° 0 mm 3 m/S 757 mmHg 78%
21:00 +10°C° 0 mm 3 m/S 757 mmHg 80%
22:00 +9°C° 0 mm 3 m/S 757 mmHg 80%
23:00 +9°C° 0 mm 3 m/S 757 mmHg 79%

26 September, Samstag

Zeit Temperatur Niederschläge Wind Luftdruck Luftfeuchtigkeit
00:00 +9°C° 0 mm 3 m/S 757 mmHg 79%
01:00 +9°C° 0 mm 2 m/S 758 mmHg 80%
02:00 +8°C° 0 mm 2 m/S 758 mmHg 80%
03:00 +8°C° 0 mm 2 m/S 758 mmHg 80%
04:00 +8°C° 0 mm 2 m/S 758 mmHg 81%
05:00 +7°C° 0 mm 2 m/S 758 mmHg 81%
06:00 +7°C° 0 mm 2 m/S 758 mmHg 82%
07:00 +9°C° 0 mm 2 m/S 758 mmHg 77%
08:00 +10°C° 0 mm 3 m/S 758 mmHg 71%
09:00 +12°C° 0 mm 3 m/S 758 mmHg 66%
10:00 +13°C° 0 mm 3 m/S 759 mmHg 62%
11:00 +14°C° 0 mm 3 m/S 759 mmHg 57%
12:00 +17°C° 0 mm 3 m/S 759 mmHg 52%
13:00 +17°C° 0 mm 3 m/S 759 mmHg 53%
14:00 +17°C° 0 mm 3 m/S 759 mmHg 54%
15:00 +17°C° 0 mm 3 m/S 759 mmHg 55%
16:00 +14°C° 0 mm 3 m/S 759 mmHg 61%
17:00 +13°C° 0 mm 3 m/S 759 mmHg 67%
18:00 +11°C° 0 mm 3 m/S 759 mmHg 73%
19:00 +10°C° 0 mm 2 m/S 759 mmHg 75%
20:00 +10°C° 0 mm 2 m/S 759 mmHg 77%
21:00 +9°C° 0 mm 2 m/S 759 mmHg 79%
22:00 +9°C° 0 mm 2 m/S 759 mmHg 79%
23:00 +8°C° 0 mm 2 m/S 760 mmHg 80%

27 September, Sonntag

Zeit Temperatur Niederschläge Wind Luftdruck Luftfeuchtigkeit
00:00 +8°C° 0 mm 2 m/S 760 mmHg 80%
01:00 +8°C° 0 mm 2 m/S 760 mmHg 80%
02:00 +8°C° 0 mm 2 m/S 760 mmHg 80%
03:00 +7°C° 0 mm 2 m/S 760 mmHg 80%
04:00 +7°C° 0 mm 2 m/S 760 mmHg 80%
05:00 +7°C° 0 mm 2 m/S 760 mmHg 81%
06:00 +7°C° 0 mm 2 m/S 760 mmHg 81%
07:00 +9°C° 0 mm 3 m/S 760 mmHg 76%
08:00 +10°C° 0 mm 3 m/S 760 mmHg 71%
09:00 +12°C° 0 mm 3 m/S 760 mmHg 66%
10:00 +13°C° 0 mm 3 m/S 760 mmHg 62%
11:00 +16°C° 0 mm 3 m/S 761 mmHg 58%
12:00 +17°C° 0 mm 3 m/S 761 mmHg 54%
13:00 +17°C° 0 mm 3 m/S 760 mmHg 55%
14:00 +17°C° 0 mm 3 m/S 760 mmHg 55%
15:00 +17°C° 0 mm 3 m/S 760 mmHg 56%
16:00 +15°C° 0 mm 2 m/S 760 mmHg 61%
17:00 +14°C° 0 mm 2 m/S 760 mmHg 67%
18:00 +12°C° 0 mm 2 m/S 760 mmHg 72%
19:00 +12°C° 0 mm 2 m/S 760 mmHg 73%
20:00 +10°C° 0 mm 2 m/S 760 mmHg 75%
21:00 +10°C° 0 mm 2 m/S 760 mmHg 76%
22:00 +9°C° 0 mm 2 m/S 760 mmHg 75%
23:00 +9°C° 0 mm 2 m/S 760 mmHg 75%

28 September, Montag

Zeit Temperatur Niederschläge Wind Luftdruck Luftfeuchtigkeit
00:00 +9°C° 0 mm 2 m/S 761 mmHg 74%
01:00 +9°C° 0 mm 2 m/S 761 mmHg 75%
02:00 +9°C° 0 mm 1 m/S 761 mmHg 75%
03:00 +9°C° 0 mm 1 m/S 760 mmHg 75%
04:00 +9°C° 0 mm 1 m/S 760 mmHg 76%
05:00 +8°C° 0 mm 1 m/S 760 mmHg 77%
06:00 +8°C° 0 mm 1 m/S 760 mmHg 79%
07:00 +10°C° 0 mm 1 m/S 760 mmHg 74%
08:00 +11°C° 0 mm 1 m/S 760 mmHg 69%
09:00 +13°C° 0 mm 1 m/S 760 mmHg 63%
10:00 +14°C° 0 mm 1 m/S 761 mmHg 60%
11:00 +15°C° 0 mm 1 m/S 761 mmHg 56%
12:00 +16°C° 0 mm 1 m/S 761 mmHg 52%
13:00 +18°C° 0 mm 1 m/S 761 mmHg 52%
14:00 +18°C° 0 mm 1 m/S 760 mmHg 51%
15:00 +18°C° 0 mm 1 m/S 760 mmHg 51%
16:00 +15°C° 0 mm 1 m/S 760 mmHg 57%
17:00 +14°C° 0 mm 1 m/S 760 mmHg 64%
18:00 +12°C° 0 mm 1 m/S 760 mmHg 70%
19:00 +11°C° 0 mm 1 m/S 760 mmHg 72%
20:00 +11°C° 0 mm 1 m/S 760 mmHg 73%
21:00 +10°C° 0 mm 1 m/S 761 mmHg 75%
22:00 +10°C° 0 mm 1 m/S 761 mmHg 75%
23:00 +9°C° 0 mm 1 m/S 761 mmHg 76%
Mehr zeigen